TimeEST,TemperatureF,Dew PointF,Humidity,Sea Level PressureIn,VisibilityMPH,Wind Direction,Wind SpeedMPH,Gust SpeedMPH,PrecipitationIn,Events,Conditions,WindDirDegrees,DateUTC
1:54 AM,39.9,17.1,40,30.06,10.0,NW,6.9,-,N/A,,Clear,310,2013-02-20 06:54:00
2:54 AM,37.0,17.1,44,30.06,10.0,NNW,5.8,-,N/A,,Clear,330,2013-02-20 07:54:00
4:54 AM,30.9,18.0,59,30.08,10.0,WNW,4.6,-,N/A,,Clear,300,2013-02-20 09:54:00
5:54 AM,27.0,21.0,78,30.09,10.0,Calm,Calm,-,N/A,,Clear,0,2013-02-20 10:54:00
6:54 AM,26.1,19.9,78,30.11,10.0,Calm,Calm,-,N/A,,Clear,0,2013-02-20 11:54:00
7:54 AM,28.9,24.1,82,30.12,10.0,SSW,3.5,-,N/A,,Clear,210,2013-02-20 12:54:00
8:54 AM,37.9,18.0,45,30.13,10.0,West,4.6,-,N/A,,Clear,270,2013-02-20 13:54:00
10:54 AM,45.0,15.1,30,30.13,10.0,Variable,5.8,-,N/A,,Clear,0,2013-02-20 15:54:00
11:54 AM,48.9,12.9,24,30.12,10.0,West,11.5,-,N/A,,Clear,260,2013-02-20 16:54:00
12:54 PM,52.0,14.0,22,30.08,10.0,Variable,4.6,-,N/A,,Clear,0,2013-02-20 17:54:00
1:54 PM,53.1,12.9,20,30.05,10.0,West,6.9,-,N/A,,Unknown,270,2013-02-20 18:54:00
2:54 PM,54.0,12.0,19,30.04,10.0,Variable,3.5,-,N/A,,Clear,0,2013-02-20 19:54:00
3:54 PM,55.0,14.0,20,30.06,10.0,WSW,6.9,-,N/A,,Clear,240,2013-02-20 20:54:00
4:54 PM,53.1,14.0,21,30.07,10.0,WSW,6.9,-,N/A,,Partly Cloudy,250,2013-02-20 21:54:00
5:54 PM,51.1,15.1,24,30.09,10.0,West,5.8,-,N/A,,Clear,260,2013-02-20 22:54:00
6:54 PM,48.0,21.0,34,30.12,10.0,SW,5.8,-,N/A,,Clear,230,2013-02-20 23:54:00
7:54 PM,42.1,24.1,49,30.10,10.0,Calm,Calm,-,N/A,,Clear,0,2013-02-21 00:54:00
8:54 PM,37.9,27.0,65,30.10,10.0,Calm,Calm,-,N/A,,Clear,0,2013-02-21 01:54:00
10:54 PM,33.1,25.0,72,30.12,10.0,NE,3.5,-,N/A,,Clear,40,2013-02-21 03:54:00
11:54 PM,36.0,19.9,52,30.12,10.0,NNE,4.6,-,N/A,,Clear,30,2013-02-21 04:54:00